Year,Month,Day,Hour,Minute,Value (Times are PST for windgust in km/hr)
2017,05,22,00,00,4.80
2017,05,22,00,01,3.20
2017,05,22,00,02,3.20
2017,05,22,00,03,3.20
2017,05,22,00,04,3.20
2017,05,22,00,05,3.20
2017,05,22,00,06,3.20
2017,05,22,00,07,3.20
2017,05,22,00,08,3.20
2017,05,22,00,09,3.20
2017,05,22,00,10,3.20
2017,05,22,00,11,3.20
2017,05,22,00,12,3.20
2017,05,22,00,13,3.20
2017,05,22,00,14,3.20
2017,05,22,00,15,3.20
2017,05,22,00,16,3.20
2017,05,22,00,17,1.60
2017,05,22,00,18,3.20
2017,05,22,00,19,3.20
2017,05,22,00,20,3.20
2017,05,22,00,21,3.20
2017,05,22,00,22,1.60
2017,05,22,00,23,3.20
2017,05,22,00,24,1.60
2017,05,22,00,25,3.20
2017,05,22,00,26,3.20
2017,05,22,00,27,3.20
2017,05,22,00,28,1.60
2017,05,22,00,29,3.20
2017,05,22,00,30,1.60
2017,05,22,00,31,1.60
2017,05,22,00,32,3.20
2017,05,22,00,33,3.20
2017,05,22,00,34,1.60
2017,05,22,00,35,4.80
2017,05,22,00,36,3.20
2017,05,22,00,37,3.20
2017,05,22,00,38,4.80
2017,05,22,00,39,3.20
2017,05,22,00,40,3.20
2017,05,22,00,41,3.20
2017,05,22,00,42,3.20
2017,05,22,00,43,3.20
2017,05,22,00,44,4.80
2017,05,22,00,45,4.80
2017,05,22,00,46,3.20
2017,05,22,00,47,3.20
2017,05,22,00,48,3.20
2017,05,22,00,49,3.20
2017,05,22,00,50,4.80
2017,05,22,00,51,3.20
2017,05,22,00,52,4.80
2017,05,22,00,53,4.80
2017,05,22,00,54,3.20
2017,05,22,00,55,3.20
2017,05,22,00,56,3.20
2017,05,22,00,57,3.20
2017,05,22,00,58,1.60
2017,05,22,00,59,1.60
2017,05,22,01,00,1.60
2017,05,22,01,01,3.20
2017,05,22,01,02,3.20
2017,05,22,01,03,3.20
2017,05,22,01,04,3.20
2017,05,22,01,05,3.20
2017,05,22,01,06,3.20
2017,05,22,01,07,3.20
2017,05,22,01,08,3.20
2017,05,22,01,09,3.20
2017,05,22,01,10,1.60
2017,05,22,01,11,3.20
2017,05,22,01,12,3.20
2017,05,22,01,13,1.60
2017,05,22,01,14,1.60
2017,05,22,01,15,3.20
2017,05,22,01,16,3.20
2017,05,22,01,17,3.20
2017,05,22,01,18,3.20
2017,05,22,01,19,3.20
2017,05,22,01,20,3.20
2017,05,22,01,21,3.20
2017,05,22,01,22,3.20
2017,05,22,01,23,3.20
2017,05,22,01,24,1.60
2017,05,22,01,25,1.60
2017,05,22,01,28,1.60
2017,05,22,01,29,1.60
2017,05,22,01,51,1.60
2017,05,22,01,57,3.20
2017,05,22,01,58,3.20
2017,05,22,01,59,3.20
2017,05,22,02,00,3.20
2017,05,22,02,01,1.60
2017,05,22,02,02,1.60
2017,05,22,02,03,1.60
2017,05,22,02,04,3.20
2017,05,22,02,05,3.20
2017,05,22,02,06,3.20
2017,05,22,02,09,3.20
2017,05,22,02,10,3.20
2017,05,22,02,11,3.20
2017,05,22,02,12,3.20
2017,05,22,02,14,3.20
2017,05,22,02,15,3.20
2017,05,22,02,16,1.60
2017,05,22,02,17,3.20
2017,05,22,02,18,3.20
2017,05,22,02,19,3.20
2017,05,22,02,20,3.20
2017,05,22,02,21,3.20
2017,05,22,02,22,1.60
2017,05,22,02,24,3.20
2017,05,22,02,25,3.20
2017,05,22,02,26,1.60
2017,05,22,02,27,1.60
2017,05,22,02,28,1.60
2017,05,22,02,29,3.20
2017,05,22,02,30,3.20
2017,05,22,02,31,3.20
2017,05,22,02,32,1.60
2017,05,22,02,33,1.60
2017,05,22,02,34,3.20
2017,05,22,02,35,3.20
2017,05,22,02,36,3.20
2017,05,22,02,37,1.60
2017,05,22,02,38,3.20
2017,05,22,02,39,3.20
2017,05,22,02,40,3.20
2017,05,22,02,41,3.20
2017,05,22,02,42,3.20
2017,05,22,02,43,3.20
2017,05,22,02,44,3.20
2017,05,22,02,45,4.80
2017,05,22,02,46,3.20
2017,05,22,02,47,3.20
2017,05,22,02,48,3.20
2017,05,22,02,49,1.60
2017,05,22,02,50,3.20
2017,05,22,02,51,3.20
2017,05,22,02,52,1.60
2017,05,22,02,53,1.60
2017,05,22,02,54,1.60
2017,05,22,03,07,3.20
2017,05,22,03,08,1.60
2017,05,22,03,11,3.20
2017,05,22,03,12,3.20
2017,05,22,03,13,3.20
2017,05,22,03,14,3.20
2017,05,22,03,15,1.60
2017,05,22,03,16,3.20
2017,05,22,03,17,3.20
2017,05,22,03,18,3.20
2017,05,22,03,19,3.20
2017,05,22,03,20,3.20
2017,05,22,03,21,3.20
2017,05,22,03,22,3.20
2017,05,22,03,23,3.20
2017,05,22,03,24,3.20
2017,05,22,03,25,3.20
2017,05,22,03,26,3.20
2017,05,22,03,27,3.20
2017,05,22,03,28,3.20
2017,05,22,03,29,3.20
2017,05,22,03,30,3.20
2017,05,22,03,31,3.20
2017,05,22,03,32,3.20
2017,05,22,03,33,3.20
2017,05,22,03,34,3.20
2017,05,22,03,35,3.20
2017,05,22,03,36,3.20
2017,05,22,03,37,3.20
2017,05,22,03,38,3.20
2017,05,22,03,39,3.20
2017,05,22,03,40,3.20
2017,05,22,03,41,3.20
2017,05,22,03,42,3.20
2017,05,22,03,43,3.20
2017,05,22,03,44,4.80
2017,05,22,03,45,4.80
2017,05,22,03,46,3.20
2017,05,22,03,47,3.20
2017,05,22,03,48,3.20
2017,05,22,03,49,3.20
2017,05,22,03,50,4.80
2017,05,22,03,51,6.40
2017,05,22,03,52,3.20
2017,05,22,03,53,4.80
2017,05,22,03,54,4.80
2017,05,22,03,55,3.20
2017,05,22,03,56,1.60
2017,05,22,03,57,1.60
2017,05,22,03,58,1.60
2017,05,22,03,59,1.60
2017,05,22,04,00,3.20
2017,05,22,04,02,3.20
2017,05,22,04,03,3.20
2017,05,22,04,04,3.20
2017,05,22,04,05,3.20
2017,05,22,04,06,1.60
2017,05,22,04,07,3.20
2017,05,22,04,08,3.20
2017,05,22,04,22,1.60
2017,05,22,04,23,1.60
2017,05,22,04,24,1.60
2017,05,22,04,25,1.60
2017,05,22,04,26,3.20
2017,05,22,04,27,3.20
2017,05,22,04,28,3.20
2017,05,22,04,29,3.20
2017,05,22,04,30,3.20
2017,05,22,04,31,3.20
2017,05,22,04,32,3.20
2017,05,22,04,33,3.20
2017,05,22,04,34,3.20
2017,05,22,04,35,3.20
2017,05,22,04,36,4.80
2017,05,22,04,37,6.40
2017,05,22,04,38,3.20
2017,05,22,04,39,1.60
2017,05,22,04,40,3.20
2017,05,22,04,41,3.20
2017,05,22,04,43,1.60
2017,05,22,04,44,1.60
2017,05,22,04,52,1.60
2017,05,22,04,53,1.60
2017,05,22,04,54,1.60
2017,05,22,04,55,1.60
2017,05,22,04,56,3.20
2017,05,22,04,57,3.20
2017,05,22,04,58,1.60
2017,05,22,04,59,3.20
2017,05,22,05,00,3.20
2017,05,22,05,01,3.20
2017,05,22,05,02,3.20
2017,05,22,05,03,3.20
2017,05,22,05,04,3.20
2017,05,22,05,05,3.20
2017,05,22,05,06,3.20
2017,05,22,05,07,3.20
2017,05,22,05,08,3.20
2017,05,22,05,09,3.20
2017,05,22,05,10,3.20
2017,05,22,05,11,3.20
2017,05,22,05,12,3.20
2017,05,22,05,13,3.20
2017,05,22,05,14,3.20
2017,05,22,05,15,1.60
2017,05,22,05,16,1.60
2017,05,22,05,17,3.20
2017,05,22,05,18,3.20
2017,05,22,05,19,3.20
2017,05,22,05,20,1.60
2017,05,22,05,21,3.20
2017,05,22,05,22,1.60
2017,05,22,05,23,3.20
2017,05,22,05,24,3.20
2017,05,22,05,25,3.20
2017,05,22,05,26,3.20
2017,05,22,05,27,4.80
2017,05,22,05,28,4.80
2017,05,22,05,29,3.20
2017,05,22,05,30,3.20
2017,05,22,05,31,3.20
2017,05,22,05,32,4.80
2017,05,22,05,33,4.80
2017,05,22,05,34,4.80
2017,05,22,05,35,4.80
2017,05,22,05,36,3.20
2017,05,22,05,37,3.20
2017,05,22,05,38,3.20
2017,05,22,05,39,3.20
2017,05,22,05,40,1.60
2017,05,22,05,41,3.20
2017,05,22,05,42,3.20
2017,05,22,05,43,3.20
2017,05,22,05,44,3.20
2017,05,22,05,45,3.20
2017,05,22,05,46,3.20
2017,05,22,05,47,3.20
2017,05,22,05,48,3.20
2017,05,22,05,49,4.80
2017,05,22,05,50,4.80
2017,05,22,05,51,3.20
2017,05,22,05,52,3.20
2017,05,22,05,53,3.20
2017,05,22,05,54,3.20
2017,05,22,05,55,1.60
2017,05,22,05,56,3.20
2017,05,22,05,57,3.20
2017,05,22,05,58,3.20
2017,05,22,05,59,3.20
2017,05,22,06,00,3.20
2017,05,22,06,01,3.20
2017,05,22,06,02,3.20
2017,05,22,06,03,3.20
2017,05,22,06,04,3.20
2017,05,22,06,05,4.80
2017,05,22,06,06,3.20
2017,05,22,06,07,3.20
2017,05,22,06,08,3.20
2017,05,22,06,09,3.20
2017,05,22,06,10,3.20
2017,05,22,06,11,3.20
2017,05,22,06,12,3.20
2017,05,22,06,13,1.60
2017,05,22,06,14,1.60
2017,05,22,06,17,1.60
2017,05,22,06,18,3.20
2017,05,22,06,19,3.20
2017,05,22,06,20,4.80
2017,05,22,06,21,3.20
2017,05,22,06,22,3.20
2017,05,22,06,23,3.20
2017,05,22,06,24,3.20
2017,05,22,06,25,3.20
2017,05,22,06,26,3.20
2017,05,22,06,27,1.60
2017,05,22,06,28,1.60
2017,05,22,06,30,3.20
2017,05,22,06,31,1.60
2017,05,22,06,34,1.60
2017,05,22,06,35,1.60
2017,05,22,06,39,1.60
2017,05,22,06,40,1.60
2017,05,22,06,50,1.60
2017,05,22,06,55,1.60
2017,05,22,06,56,1.60
2017,05,22,07,06,1.60
2017,05,22,07,43,1.60
2017,05,22,07,45,1.60
2017,05,22,07,46,1.60
2017,05,22,07,48,3.20
2017,05,22,07,49,3.20
2017,05,22,07,50,3.20
2017,05,22,07,51,1.60
2017,05,22,07,53,1.60
2017,05,22,07,55,4.80
2017,05,22,07,56,4.80
2017,05,22,07,57,4.80
2017,05,22,07,58,3.20
2017,05,22,07,59,3.20
2017,05,22,08,00,3.20
2017,05,22,08,01,3.20
2017,05,22,08,02,4.80
2017,05,22,08,03,6.40
2017,05,22,08,04,6.40
2017,05,22,08,05,6.40
2017,05,22,08,06,4.80
2017,05,22,08,07,4.80
2017,05,22,08,08,9.60
2017,05,22,08,09,6.40
2017,05,22,08,10,4.80
2017,05,22,08,11,4.80
2017,05,22,08,12,4.80
2017,05,22,08,13,4.80
2017,05,22,08,14,4.80
2017,05,22,08,15,3.20
2017,05,22,08,16,3.20
2017,05,22,08,17,4.80
2017,05,22,08,18,3.20
2017,05,22,08,20,4.80
2017,05,22,08,21,3.20
2017,05,22,08,22,1.60
2017,05,22,08,23,3.20
2017,05,22,08,24,4.80
2017,05,22,08,25,3.20
2017,05,22,08,26,6.40
2017,05,22,08,27,8.10
2017,05,22,08,28,6.40
2017,05,22,08,29,4.80
2017,05,22,08,30,3.20
2017,05,22,08,31,6.40
2017,05,22,08,32,6.40
2017,05,22,08,33,8.10
2017,05,22,08,34,6.40
2017,05,22,08,35,6.40
2017,05,22,08,36,6.40
2017,05,22,08,37,9.60
2017,05,22,08,38,9.60
2017,05,22,08,39,6.40
2017,05,22,08,40,8.10
2017,05,22,08,41,8.10
2017,05,22,08,42,9.60
2017,05,22,08,43,11.30
2017,05,22,08,44,8.10
2017,05,22,08,45,9.60
2017,05,22,08,46,9.60
2017,05,22,08,47,8.10
2017,05,22,08,48,8.10
2017,05,22,08,49,9.60
2017,05,22,08,50,4.80
2017,05,22,08,51,9.60
2017,05,22,08,52,9.60
2017,05,22,08,53,9.60
2017,05,22,08,54,11.30
2017,05,22,08,55,11.30
2017,05,22,08,56,9.60
2017,05,22,08,57,11.30
2017,05,22,08,58,8.10
2017,05,22,08,59,8.10
2017,05,22,09,00,8.10
2017,05,22,09,01,9.60
2017,05,22,09,02,11.30
2017,05,22,09,03,12.90
2017,05,22,09,04,9.60
2017,05,22,09,05,11.30
2017,05,22,09,06,11.30
2017,05,22,09,07,8.10
2017,05,22,09,08,11.30
2017,05,22,09,09,9.60
2017,05,22,09,10,9.60
2017,05,22,09,11,9.60
2017,05,22,09,12,9.60
2017,05,22,09,13,9.60
2017,05,22,09,14,11.30
2017,05,22,09,15,9.60
2017,05,22,09,16,11.30
2017,05,22,09,17,9.60
2017,05,22,09,18,11.30
2017,05,22,09,19,9.60
2017,05,22,09,20,11.30
2017,05,22,09,21,9.60
2017,05,22,09,22,6.40
2017,05,22,09,23,8.10
2017,05,22,09,24,9.60
2017,05,22,09,25,9.60
2017,05,22,09,26,9.60
2017,05,22,09,27,9.60
2017,05,22,09,28,8.10
2017,05,22,09,29,8.10
2017,05,22,09,30,8.10
2017,05,22,09,31,6.40
2017,05,22,09,32,4.80
2017,05,22,09,33,9.60
2017,05,22,09,34,8.10
2017,05,22,09,35,4.80
2017,05,22,09,36,6.40
2017,05,22,09,37,6.40
2017,05,22,09,38,6.40
2017,05,22,09,39,8.10
2017,05,22,09,40,8.10
2017,05,22,09,41,4.80
2017,05,22,09,42,6.40
2017,05,22,09,43,6.40
2017,05,22,09,44,4.80
2017,05,22,09,45,8.10
2017,05,22,09,46,9.60
2017,05,22,09,47,9.60
2017,05,22,09,48,11.30
2017,05,22,09,49,11.30
2017,05,22,09,50,11.30
2017,05,22,09,51,9.60
2017,05,22,09,52,9.60
2017,05,22,09,53,9.60
2017,05,22,09,54,9.60
2017,05,22,09,55,9.60
2017,05,22,09,56,11.30
2017,05,22,09,57,8.10
2017,05,22,09,58,9.60
2017,05,22,09,59,9.60
2017,05,22,10,00,6.40
2017,05,22,10,01,6.40
2017,05,22,10,02,9.60
2017,05,22,10,03,9.60
2017,05,22,10,04,8.10
2017,05,22,10,05,6.40
2017,05,22,10,06,6.40
2017,05,22,10,07,8.10
2017,05,22,10,08,8.10
2017,05,22,10,09,8.10
2017,05,22,10,10,8.10
2017,05,22,10,11,8.10
2017,05,22,10,12,9.60
2017,05,22,10,13,9.60
2017,05,22,10,14,9.60
2017,05,22,10,15,8.10
2017,05,22,10,16,6.40
2017,05,22,10,17,8.10
2017,05,22,10,18,6.40
2017,05,22,10,19,8.10
2017,05,22,10,20,8.10
2017,05,22,10,21,6.40
2017,05,22,10,22,6.40
2017,05,22,10,23,4.80
2017,05,22,10,24,6.40
2017,05,22,10,25,8.10
2017,05,22,10,26,6.40
2017,05,22,10,27,6.40
2017,05,22,10,28,6.40
2017,05,22,10,29,4.80
2017,05,22,10,30,6.40
2017,05,22,10,31,4.80
2017,05,22,10,32,6.40
2017,05,22,10,33,6.40
2017,05,22,10,34,6.40
2017,05,22,10,35,4.80
2017,05,22,10,36,4.80
2017,05,22,10,37,4.80
2017,05,22,10,38,6.40
2017,05,22,10,39,4.80
2017,05,22,10,40,4.80
2017,05,22,10,41,4.80
2017,05,22,10,42,4.80
2017,05,22,10,43,4.80
2017,05,22,10,44,4.80
2017,05,22,10,45,8.10
2017,05,22,10,46,6.40
2017,05,22,10,47,4.80
2017,05,22,10,48,6.40
2017,05,22,10,49,4.80
2017,05,22,10,50,4.80
2017,05,22,10,51,8.10
2017,05,22,10,52,9.60
2017,05,22,10,53,6.40
2017,05,22,10,54,6.40
2017,05,22,10,55,6.40
2017,05,22,10,56,6.40
2017,05,22,10,57,8.10
2017,05,22,10,58,9.60
2017,05,22,10,59,6.40
2017,05,22,11,00,6.40
2017,05,22,11,01,6.40
2017,05,22,11,02,8.10
2017,05,22,11,03,6.40
2017,05,22,11,04,3.20
2017,05,22,11,05,3.20
2017,05,22,11,06,3.20
2017,05,22,11,07,6.40
2017,05,22,11,08,6.40
2017,05,22,11,09,6.40
2017,05,22,11,10,6.40
2017,05,22,11,11,4.80
2017,05,22,11,12,4.80
2017,05,22,11,13,1.60
2017,05,22,11,14,1.60
2017,05,22,11,15,3.20
2017,05,22,11,16,1.60
2017,05,22,11,17,3.20
2017,05,22,11,18,6.40
2017,05,22,11,19,6.40
2017,05,22,11,20,6.40
2017,05,22,11,21,4.80
2017,05,22,11,22,3.20
2017,05,22,11,23,8.10
2017,05,22,11,24,8.10
2017,05,22,11,25,8.10
2017,05,22,11,26,6.40
2017,05,22,11,27,6.40
2017,05,22,11,28,4.80
2017,05,22,11,29,6.40
2017,05,22,11,30,6.40
2017,05,22,11,31,3.20
2017,05,22,11,32,4.80
2017,05,22,11,33,4.80
2017,05,22,11,34,4.80
2017,05,22,11,35,6.40
2017,05,22,11,36,6.40
2017,05,22,11,37,6.40
2017,05,22,11,38,8.10
2017,05,22,11,39,6.40
2017,05,22,11,40,6.40
2017,05,22,11,41,8.10
2017,05,22,11,42,8.10
2017,05,22,11,43,8.10
2017,05,22,11,44,8.10
2017,05,22,11,45,4.80
2017,05,22,11,46,3.20
2017,05,22,11,47,8.10
2017,05,22,11,48,8.10
2017,05,22,11,49,8.10
2017,05,22,11,50,6.40
2017,05,22,11,51,8.10
2017,05,22,11,52,4.80
2017,05,22,11,53,6.40
2017,05,22,11,54,6.40
2017,05,22,11,55,4.80
2017,05,22,11,56,8.10
2017,05,22,11,57,8.10
2017,05,22,11,58,6.40
2017,05,22,11,59,6.40
2017,05,22,12,00,8.10
2017,05,22,12,01,6.40
2017,05,22,12,02,4.80
2017,05,22,12,03,4.80
2017,05,22,12,04,6.40
2017,05,22,12,05,6.40
2017,05,22,12,06,8.10
2017,05,22,12,07,4.80
2017,05,22,12,08,3.20
2017,05,22,12,09,1.60
2017,05,22,12,10,6.40
2017,05,22,12,11,8.10
2017,05,22,12,12,6.40
2017,05,22,12,13,8.10
2017,05,22,12,14,8.10
2017,05,22,12,15,8.10
2017,05,22,12,16,8.10
2017,05,22,12,17,6.40
2017,05,22,12,18,6.40
2017,05,22,12,19,6.40
2017,05,22,12,20,8.10
2017,05,22,12,21,4.80
2017,05,22,12,22,8.10
2017,05,22,12,23,8.10
2017,05,22,12,24,6.40
2017,05,22,12,25,8.10
2017,05,22,12,26,4.80
2017,05,22,12,27,4.80
2017,05,22,12,28,6.40
2017,05,22,12,29,3.20
2017,05,22,12,30,3.20
2017,05,22,12,31,6.40
2017,05,22,12,32,6.40
2017,05,22,12,33,3.20
2017,05,22,12,34,6.40
2017,05,22,12,35,8.10
2017,05,22,12,36,6.40
2017,05,22,12,37,8.10
2017,05,22,12,38,6.40
2017,05,22,12,39,4.80
2017,05,22,12,40,11.30
2017,05,22,12,41,8.10
2017,05,22,12,42,6.40
2017,05,22,12,43,4.80
2017,05,22,12,44,6.40
2017,05,22,12,45,8.10
2017,05,22,12,46,8.10
2017,05,22,12,47,6.40
2017,05,22,12,48,6.40
2017,05,22,12,49,6.40
2017,05,22,12,50,3.20
2017,05,22,12,51,4.80
2017,05,22,12,52,8.10
2017,05,22,12,53,8.10
2017,05,22,12,54,9.60
2017,05,22,12,55,8.10
2017,05,22,12,56,3.20
2017,05,22,12,57,8.10
2017,05,22,12,58,8.10
2017,05,22,12,59,3.20
2017,05,22,13,00,6.40
2017,05,22,13,01,4.80
2017,05,22,13,02,8.10
2017,05,22,13,03,8.10
2017,05,22,13,04,6.40
2017,05,22,13,05,6.40
2017,05,22,13,06,8.10
2017,05,22,13,07,4.80
2017,05,22,13,08,8.10
2017,05,22,13,09,6.40
2017,05,22,13,10,8.10
2017,05,22,13,11,8.10
2017,05,22,13,12,6.40
2017,05,22,13,13,6.40
2017,05,22,13,14,6.40
2017,05,22,13,15,8.10
2017,05,22,13,16,8.10
2017,05,22,13,17,8.10
2017,05,22,13,18,9.60
2017,05,22,13,19,8.10
2017,05,22,13,20,8.10
2017,05,22,13,21,8.10
2017,05,22,13,22,8.10
2017,05,22,13,23,12.90
2017,05,22,13,24,11.30
2017,05,22,13,25,14.50
2017,05,22,13,26,11.30
2017,05,22,13,27,9.60
2017,05,22,13,28,9.60
2017,05,22,13,29,12.90
2017,05,22,13,30,12.90
2017,05,22,13,31,16.10
2017,05,22,13,32,16.10
2017,05,22,13,33,11.30
2017,05,22,13,34,11.30
2017,05,22,13,35,11.30
2017,05,22,13,36,9.60
2017,05,22,13,37,11.30
2017,05,22,13,38,12.90
2017,05,22,13,39,12.90
2017,05,22,13,40,11.30
2017,05,22,13,41,12.90
2017,05,22,13,42,12.90
2017,05,22,13,43,11.30
2017,05,22,13,44,11.30
2017,05,22,13,45,9.60
2017,05,22,13,46,12.90
2017,05,22,13,47,11.30
2017,05,22,13,48,11.30
2017,05,22,13,49,11.30
2017,05,22,13,50,9.60
2017,05,22,13,51,11.30
2017,05,22,13,52,6.40
2017,05,22,13,53,8.10
2017,05,22,13,54,8.10
2017,05,22,13,55,11.30
2017,05,22,13,56,11.30
2017,05,22,13,57,11.30
2017,05,22,13,58,11.30
2017,05,22,13,59,11.30
2017,05,22,14,00,11.30
2017,05,22,14,01,9.60
2017,05,22,14,02,9.60
2017,05,22,14,03,9.60
2017,05,22,14,04,8.10
2017,05,22,14,05,6.40
2017,05,22,14,06,12.90
2017,05,22,14,07,9.60
2017,05,22,14,08,6.40
2017,05,22,14,09,9.60
2017,05,22,14,10,8.10
2017,05,22,14,11,6.40
2017,05,22,14,12,9.60
2017,05,22,14,13,9.60
2017,05,22,14,14,6.40
2017,05,22,14,15,4.80
2017,05,22,14,16,8.10
2017,05,22,14,17,8.10
2017,05,22,14,18,6.40
2017,05,22,14,19,8.10
2017,05,22,14,20,9.60
2017,05,22,14,21,4.80
2017,05,22,14,22,6.40
2017,05,22,14,23,11.30
2017,05,22,14,24,8.10
2017,05,22,14,25,6.40
2017,05,22,14,26,6.40
2017,05,22,14,27,6.40
2017,05,22,14,28,6.40
2017,05,22,14,29,9.60
2017,05,22,14,30,6.40
2017,05,22,14,31,6.40
2017,05,22,14,32,8.10
2017,05,22,14,33,8.10
2017,05,22,14,34,8.10
2017,05,22,14,35,8.10
2017,05,22,14,36,8.10
2017,05,22,14,37,9.60
2017,05,22,14,38,8.10
2017,05,22,14,39,8.10
2017,05,22,14,40,6.40
2017,05,22,14,41,6.40
2017,05,22,14,42,8.10
2017,05,22,14,43,4.80
2017,05,22,14,44,4.80
2017,05,22,14,45,8.10
2017,05,22,14,46,6.40
2017,05,22,14,47,9.60
2017,05,22,14,48,11.30
2017,05,22,14,49,9.60
2017,05,22,14,50,8.10
2017,05,22,14,51,8.10
2017,05,22,14,52,9.60
2017,05,22,14,53,6.40
2017,05,22,14,54,6.40
2017,05,22,14,55,8.10
2017,05,22,14,56,6.40
2017,05,22,14,57,9.60
2017,05,22,14,58,6.40
2017,05,22,14,59,9.60
2017,05,22,15,00,9.60
2017,05,22,15,01,8.10
2017,05,22,15,02,8.10
2017,05,22,15,03,9.60
2017,05,22,15,04,9.60
2017,05,22,15,05,8.10
2017,05,22,15,06,8.10
2017,05,22,15,07,9.60
2017,05,22,15,08,8.10
2017,05,22,15,09,9.60
2017,05,22,15,10,8.10
2017,05,22,15,11,6.40
2017,05,22,15,12,9.60
2017,05,22,15,13,9.60
2017,05,22,15,14,8.10
2017,05,22,15,15,8.10
2017,05,22,15,16,12.90
2017,05,22,15,17,11.30
2017,05,22,15,18,9.60
2017,05,22,15,19,11.30
2017,05,22,15,20,9.60
2017,05,22,15,21,11.30
2017,05,22,15,22,9.60
2017,05,22,15,23,8.10
2017,05,22,15,24,8.10
2017,05,22,15,25,9.60
2017,05,22,15,26,8.10
2017,05,22,15,27,11.30
2017,05,22,15,28,9.60
2017,05,22,15,29,8.10
2017,05,22,15,30,6.40
2017,05,22,15,31,8.10
2017,05,22,15,32,11.30
2017,05,22,15,33,6.40
2017,05,22,15,34,6.40
2017,05,22,15,35,9.60
2017,05,22,15,36,9.60
2017,05,22,15,37,11.30
2017,05,22,15,38,8.10
2017,05,22,15,39,8.10
2017,05,22,15,40,9.60
2017,05,22,15,41,6.40
2017,05,22,15,42,6.40
2017,05,22,15,43,6.40
2017,05,22,15,44,6.40
2017,05,22,15,45,6.40
2017,05,22,15,46,8.10
2017,05,22,15,47,8.10
2017,05,22,15,48,8.10
2017,05,22,15,49,11.30
2017,05,22,15,50,8.10
2017,05,22,15,51,8.10
2017,05,22,15,52,8.10
2017,05,22,15,53,8.10
2017,05,22,15,54,8.10
2017,05,22,15,55,9.60
2017,05,22,15,56,9.60
2017,05,22,15,57,8.10
2017,05,22,15,58,9.60
2017,05,22,15,59,8.10
2017,05,22,16,00,11.30
2017,05,22,16,01,11.30
2017,05,22,16,02,9.60
2017,05,22,16,03,9.60
2017,05,22,16,04,9.60
2017,05,22,16,05,9.60
2017,05,22,16,06,11.30
2017,05,22,16,07,9.60
2017,05,22,16,08,11.30
2017,05,22,16,09,11.30
2017,05,22,16,10,11.30
2017,05,22,16,11,12.90
2017,05,22,16,12,11.30
2017,05,22,16,13,12.90
2017,05,22,16,14,12.90
2017,05,22,16,15,11.30
2017,05,22,16,16,11.30
2017,05,22,16,17,6.40
2017,05,22,16,18,9.60
2017,05,22,16,19,9.60
2017,05,22,16,20,11.30
2017,05,22,16,21,11.30
2017,05,22,16,22,9.60
2017,05,22,16,23,11.30
2017,05,22,16,24,9.60
2017,05,22,16,25,9.60
2017,05,22,16,26,9.60
2017,05,22,16,27,6.40
2017,05,22,16,28,8.10
2017,05,22,16,29,11.30
2017,05,22,16,30,9.60
2017,05,22,16,31,9.60
2017,05,22,16,32,6.40
2017,05,22,16,33,8.10
2017,05,22,16,34,9.60
2017,05,22,16,35,8.10
2017,05,22,16,36,8.10
2017,05,22,16,37,9.60
2017,05,22,16,38,8.10
2017,05,22,16,39,8.10
2017,05,22,16,40,9.60
2017,05,22,16,41,8.10
2017,05,22,16,42,6.40
2017,05,22,16,43,8.10
2017,05,22,16,44,8.10
2017,05,22,16,45,8.10
2017,05,22,16,46,6.40
2017,05,22,16,47,6.40
2017,05,22,16,48,4.80
2017,05,22,16,49,6.40
2017,05,22,16,50,6.40
2017,05,22,16,51,4.80
2017,05,22,16,52,8.10
2017,05,22,16,53,6.40
2017,05,22,16,54,4.80
2017,05,22,16,55,6.40
2017,05,22,16,56,8.10
2017,05,22,16,57,6.40
2017,05,22,16,58,4.80
2017,05,22,16,59,6.40
2017,05,22,17,00,4.80
2017,05,22,17,01,8.10
2017,05,22,17,02,6.40
2017,05,22,17,03,6.40
2017,05,22,17,04,8.10
2017,05,22,17,05,8.10
2017,05,22,17,06,8.10
2017,05,22,17,07,4.80
2017,05,22,17,08,6.40
2017,05,22,17,09,8.10
2017,05,22,17,10,8.10
2017,05,22,17,11,6.40
2017,05,22,17,12,6.40
2017,05,22,17,13,6.40
2017,05,22,17,14,9.60
2017,05,22,17,15,8.10
2017,05,22,17,16,6.40
2017,05,22,17,17,6.40
2017,05,22,17,18,4.80
2017,05,22,17,19,4.80
2017,05,22,17,20,8.10
2017,05,22,17,21,6.40
2017,05,22,17,22,4.80
2017,05,22,17,23,6.40
2017,05,22,17,24,6.40
2017,05,22,17,25,4.80
2017,05,22,17,26,4.80
2017,05,22,17,27,8.10
2017,05,22,17,28,8.10
2017,05,22,17,29,8.10
2017,05,22,17,30,8.10
2017,05,22,17,31,9.60
2017,05,22,17,32,8.10
2017,05,22,17,33,8.10
2017,05,22,17,34,8.10
2017,05,22,17,35,8.10
2017,05,22,17,36,8.10
2017,05,22,17,37,6.40
2017,05,22,17,38,9.60
2017,05,22,17,39,9.60
2017,05,22,17,40,8.10
2017,05,22,17,41,8.10
2017,05,22,17,42,8.10
2017,05,22,17,43,8.10
2017,05,22,17,44,8.10
2017,05,22,17,45,6.40
2017,05,22,17,46,8.10
2017,05,22,17,47,6.40
2017,05,22,17,48,6.40
2017,05,22,17,49,8.10
2017,05,22,17,50,8.10
2017,05,22,17,51,8.10
2017,05,22,17,52,8.10
2017,05,22,17,53,8.10
2017,05,22,17,54,6.40
2017,05,22,17,55,8.10
2017,05,22,17,56,8.10
2017,05,22,17,57,8.10
2017,05,22,17,58,6.40
2017,05,22,17,59,8.10
2017,05,22,18,00,8.10
2017,05,22,18,01,4.80
2017,05,22,18,02,6.40
2017,05,22,18,03,4.80
2017,05,22,18,04,6.40
2017,05,22,18,05,8.10
2017,05,22,18,06,4.80
2017,05,22,18,07,6.40
2017,05,22,18,08,4.80
2017,05,22,18,09,6.40
2017,05,22,18,10,6.40
2017,05,22,18,11,6.40
2017,05,22,18,12,4.80
2017,05,22,18,13,4.80
2017,05,22,18,14,3.20
2017,05,22,18,15,4.80
2017,05,22,18,16,4.80
2017,05,22,18,17,4.80
2017,05,22,18,18,4.80
2017,05,22,18,19,3.20
2017,05,22,18,20,3.20
2017,05,22,18,21,1.60
2017,05,22,18,22,3.20
2017,05,22,18,23,4.80
2017,05,22,18,24,4.80
2017,05,22,18,25,4.80
2017,05,22,18,26,4.80
2017,05,22,18,27,4.80
2017,05,22,18,28,6.40
2017,05,22,18,29,6.40
2017,05,22,18,30,4.80
2017,05,22,18,31,4.80
2017,05,22,18,32,4.80
2017,05,22,18,33,4.80
2017,05,22,18,34,6.40
2017,05,22,18,35,6.40
2017,05,22,18,36,4.80
2017,05,22,18,37,3.20
2017,05,22,18,38,4.80
2017,05,22,18,39,3.20
2017,05,22,18,40,3.20
2017,05,22,18,41,1.60
2017,05,22,18,42,3.20
2017,05,22,18,43,3.20
2017,05,22,18,44,3.20
2017,05,22,18,45,4.80
2017,05,22,18,46,4.80
2017,05,22,18,47,3.20
2017,05,22,18,48,3.20
2017,05,22,18,49,3.20
2017,05,22,18,50,4.80
2017,05,22,18,51,4.80
2017,05,22,18,52,3.20
2017,05,22,18,53,3.20
2017,05,22,18,54,4.80
2017,05,22,18,55,3.20
2017,05,22,18,56,3.20
2017,05,22,18,57,3.20
2017,05,22,18,58,3.20
2017,05,22,18,59,3.20
2017,05,22,19,00,3.20
2017,05,22,19,01,3.20
2017,05,22,19,02,3.20
2017,05,22,19,03,3.20
2017,05,22,19,04,3.20
2017,05,22,19,05,3.20
2017,05,22,19,06,4.80
2017,05,22,19,07,3.20
2017,05,22,19,08,3.20
2017,05,22,19,09,3.20
2017,05,22,19,10,1.60
2017,05,22,19,11,3.20
2017,05,22,19,12,4.80
2017,05,22,19,13,3.20
2017,05,22,19,14,3.20
2017,05,22,19,15,1.60
2017,05,22,19,16,1.60
2017,05,22,19,17,1.60
2017,05,22,19,18,1.60
2017,05,22,19,19,1.60
2017,05,22,19,20,3.20
2017,05,22,19,21,3.20
2017,05,22,19,23,3.20
2017,05,22,19,24,3.20
2017,05,22,19,25,3.20
2017,05,22,19,26,3.20
2017,05,22,19,27,3.20
2017,05,22,19,28,4.80
2017,05,22,19,29,4.80
2017,05,22,19,30,3.20
2017,05,22,19,31,4.80
2017,05,22,19,32,4.80
2017,05,22,19,33,3.20
2017,05,22,19,34,3.20
2017,05,22,19,35,3.20
2017,05,22,19,36,3.20
2017,05,22,19,37,3.20
2017,05,22,19,38,3.20
2017,05,22,19,39,1.60
2017,05,22,19,40,3.20
2017,05,22,19,41,3.20
2017,05,22,19,42,1.60
2017,05,22,19,49,1.60
2017,05,22,21,00,1.60
2017,05,22,21,01,1.60
2017,05,22,21,02,1.60
2017,05,22,21,03,1.60
2017,05,22,21,04,1.60
2017,05,22,21,05,1.60
2017,05,22,21,06,1.60
2017,05,22,21,07,1.60
2017,05,22,21,08,1.60
2017,05,22,21,09,1.60
2017,05,22,21,10,1.60
2017,05,22,21,11,1.60
2017,05,22,21,13,1.60
2017,05,22,21,23,1.60
2017,05,22,21,24,3.20
2017,05,22,21,25,3.20
2017,05,22,21,26,3.20
2017,05,22,21,27,3.20
2017,05,22,21,28,1.60
2017,05,22,21,29,1.60
2017,05,22,21,30,1.60
2017,05,22,21,31,3.20
2017,05,22,21,32,1.60
2017,05,22,21,33,1.60
2017,05,22,21,35,1.60
2017,05,22,21,36,1.60
2017,05,22,21,37,1.60
2017,05,22,21,38,1.60
2017,05,22,21,39,1.60
2017,05,22,21,40,1.60
2017,05,22,21,41,1.60
2017,05,22,21,50,1.60
2017,05,22,21,51,1.60
2017,05,22,21,59,1.60
2017,05,22,22,00,1.60
2017,05,22,22,01,3.20
2017,05,22,22,02,3.20
2017,05,22,22,03,4.80
2017,05,22,22,04,3.20
2017,05,22,22,05,3.20